User: anonymous   Login
Location: Wien
(48.2082°N, 16.3738°E)
Time: 07:35:48
(UTC+02:00)
Language:

UWE-3 - Orbit

View from above orbital plane
View from above orbital plane
View from above satellite
View from above satellite

Ground track
Ground track

The orbit data is extracted from the following two-line orbital elements,

1 39446U 13066AG  24106.41487159  .00008449  00000-0  95784-3 0  9995
2 39446  97.7760  57.5556 0063413  66.4895 294.2966 14.85137519559384
Epoch (UTC): 15 April 2024 09:57:24
Eccentricity: 0.0063413
inclination: 97.7760°
perigee height: 569 km
apogee height: 657 km
right ascension of ascending node: 57.5556°
argument of perigee: 66.4895°
revolutions per day: 14.85137519
mean anomaly at epoch: 294.2966°
orbit number at epoch: 55938

The dashed part of the orbit path shows where the satellite is in the earth's shadow,  

DLR